Date String (YYYY-MM-DD hh:mm:ss) UTC,Instrument flags,Ambient pressure (hPa),Sample flow (lpm),Bypass flow (lpm),Sample temperature (°C),Ambient temperature (°C),ASC tube jacket temperature (°C),LED temperature (°C),Box temperature (°C),Sample RH (%),Span deviation,Mass concentration (μg/m³),Mass concentration (μg/m³),Mass concentration (μg/m³)
DateTimeUTC,F1_M11,P_M11,Q1_M11,Q2_M11,T1_M11,T2_M11,T3_M11,T4_M11,T5_M11,U1_M11,ZSPAN_M11,X2_M11,X0_M11,X1_M11
2023-04-24 08:00:00,,0825.5,5.00,0.00,24.6,23.0,00.0,33.1,26.2,13.5,0004.2,0007.60,0012.82,0007.06
2023-04-24 08:01:00,,0825.5,4.99,0.00,24.6,22.9,00.0,33.1,26.2,13.6,0004.6,0007.66,0013.01,0007.07
2023-04-24 08:02:00,,0825.5,4.99,0.00,24.6,22.9,00.0,33.0,26.3,13.6,0004.8,0007.70,0013.05,0007.09
2023-04-24 08:03:00,,0825.5,5.01,0.00,24.6,22.9,00.0,33.0,26.2,13.7,0005.4,0007.71,0012.27,0007.09
2023-04-24 08:04:00,,0825.5,5.00,0.00,24.6,22.9,00.0,33.0,26.2,13.6,0005.1,0007.72,0012.27,0007.09
2023-04-24 08:05:00,,0825.5,5.00,0.00,24.6,22.9,00.0,33.0,26.2,13.6,0005.0,0007.72,0012.16,0007.09
2023-04-24 08:06:00,,0825.5,5.00,0.00,24.6,22.8,00.0,33.0,26.2,13.6,0004.5,0007.68,0011.69,0007.10
2023-04-24 08:07:00,,0825.5,5.00,0.00,24.5,22.8,00.0,33.0,26.2,13.7,0003.8,0007.67,0011.43,0007.10
2023-04-24 08:08:00,,0825.5,5.00,0.00,24.5,22.8,00.0,33.0,26.1,13.8,0002.1,0007.69,0011.01,0007.11
2023-04-24 08:09:00,,0825.4,5.00,0.00,24.5,22.8,00.0,33.0,26.1,14.0,0001.0,0007.70,0010.94,0007.12
2023-04-24 08:10:00,,0825.4,5.00,0.00,24.5,22.8,00.0,32.9,26.1,14.0,0001.3,0007.68,0010.94,0007.13
2023-04-24 08:11:00,,0825.4,5.01,0.00,24.5,22.7,00.0,32.9,26.1,14.2,0000.8,0007.69,0011.56,0007.14
2023-04-24 08:12:00,,0825.4,4.99,0.00,24.5,22.7,00.0,32.9,26.1,14.1,0000.2,0007.70,0011.59,0007.18
2023-04-24 08:13:00,,0825.4,5.00,0.00,24.4,22.7,00.0,32.9,26.0,14.2,-000.1,0007.71,0011.56,0007.22
2023-04-24 08:14:00,,0825.4,4.99,0.00,24.4,22.7,00.0,32.9,26.0,14.3,-000.6,0007.72,0011.57,0007.24
2023-04-24 08:15:00,,0825.4,5.00,0.00,24.4,22.7,00.0,32.9,26.0,14.1,-000.9,0007.71,0011.56,0007.24
2023-04-24 08:16:00,,0825.4,5.01,0.00,24.4,22.7,00.0,32.9,26.0,14.1,-001.0,0007.71,0011.80,0007.25
2023-04-24 08:17:00,,0825.3,5.00,0.00,24.4,22.7,00.0,32.9,26.0,14.1,-000.2,0007.71,0011.90,0007.23
2023-04-24 08:18:00,,0825.4,5.01,0.00,24.4,22.7,00.0,32.9,26.0,14.0,0000.1,0007.72,0011.89,0007.24
2023-04-24 08:19:00,,0825.3,5.00,0.00,24.4,22.7,00.0,32.8,26.0,13.8,0001.3,0007.67,0011.76,0007.22
2023-04-24 08:20:00,,0825.3,5.00,0.00,24.4,22.6,00.0,32.8,26.0,13.8,0001.8,0007.65,0011.73,0007.19
2023-04-24 08:21:00,,0825.3,5.00,0.00,24.4,22.6,00.0,32.8,26.0,13.8,0002.3,0007.66,0011.99,0007.18
2023-04-24 08:22:00,,0825.3,4.99,0.00,24.3,22.6,00.0,32.8,26.0,13.8,0002.7,0007.62,0011.87,0007.16
2023-04-24 08:23:00,,0825.3,5.00,0.00,24.3,22.6,00.0,32.8,25.9,13.7,0002.4,0007.61,0011.80,0007.12
2023-04-24 08:24:00,,0825.3,5.00,0.00,24.3,22.6,00.0,32.8,25.9,13.7,0001.8,0007.56,0011.77,0007.06
2023-04-24 08:25:00,,0825.2,5.01,0.00,24.3,22.6,00.0,32.8,25.9,13.8,0002.1,0007.54,0011.78,0007.04
2023-04-24 08:26:00,,0825.2,5.01,0.00,24.3,22.6,00.0,32.8,25.9,13.7,0002.3,0007.53,0011.79,0007.02
2023-04-24 08:27:00,,0825.2,5.01,0.00,24.3,22.6,00.0,32.8,25.9,13.8,0002.4,0007.53,0011.51,0007.01
2023-04-24 08:28:00,,0825.2,5.00,0.00,24.3,22.5,00.0,32.7,25.9,13.8,0002.8,0007.55,0011.53,0007.00
2023-04-24 08:29:00,,0825.3,5.00,0.00,24.3,22.5,00.0,32.7,25.9,13.8,0002.7,0007.57,0011.70,0006.98
2023-04-24 08:30:00,,0825.2,5.00,0.00,24.2,22.5,00.0,32.7,25.8,13.8,0001.5,0007.61,0011.93,0006.98
2023-04-24 08:31:00,,0825.2,4.99,0.00,24.2,22.5,00.0,32.7,25.8,13.8,0001.3,0007.60,0011.95,0006.98
2023-04-24 08:32:00,,0825.2,5.00,0.00,24.2,22.5,00.0,32.7,25.8,13.9,0001.3,0007.58,0011.71,0006.96
2023-04-24 08:33:00,,0825.2,5.00,0.00,24.2,22.4,00.0,32.7,25.8,13.8,0001.3,0007.55,0010.96,0006.95
2023-04-24 08:34:00,,0825.2,4.99,0.00,24.2,22.4,00.0,32.7,25.7,13.8,0001.4,0007.50,0010.82,0006.94
2023-04-24 08:35:00,,0825.2,4.99,0.00,24.2,22.4,00.0,32.6,25.7,13.8,0002.3,0007.51,0011.13,0006.95
2023-04-24 08:36:00,,0825.1,4.99,0.00,24.2,22.4,00.0,32.6,25.7,13.8,0002.5,0007.49,0011.14,0006.94
2023-04-24 08:37:00,,0825.1,5.01,0.00,24.1,22.4,00.0,32.6,25.7,13.8,0002.7,0007.52,0011.20,0006.93
2023-04-24 08:38:00,,0825.1,5.01,0.00,24.1,22.4,00.0,32.6,25.6,13.8,0001.8,0007.51,0011.19,0006.92
2023-04-24 08:39:00,,0825.1,5.00,0.00,24.1,22.4,00.0,32.6,25.6,13.8,0001.5,0007.50,0011.14,0006.92
2023-04-24 08:40:00,,0825.1,5.00,0.00,24.1,22.3,00.0,32.6,25.7,13.8,0002.0,0007.48,0011.01,0006.93
2023-04-24 08:41:00,,0825.1,5.00,0.00,24.1,22.3,00.0,32.6,25.6,13.8,0003.1,0007.46,0010.83,0006.93
2023-04-24 08:42:00,,0825.1,5.00,0.00,24.1,22.3,00.0,32.5,25.6,13.8,0003.7,0007.46,0010.84,0006.93
2023-04-24 08:43:00,,0825.1,5.00,0.00,24.1,22.3,00.0,32.5,25.6,13.9,0003.7,0007.48,0010.89,0006.93
2023-04-24 08:44:00,,0825.1,5.00,0.00,24.1,22.3,00.0,32.5,25.6,13.9,0003.5,0007.54,0011.07,0006.95
2023-04-24 08:45:00,,0825.1,5.00,0.00,24.1,22.3,00.0,32.5,25.6,13.9,0003.2,0007.55,0011.13,0006.94
2023-04-24 08:46:00,,0825.0,5.00,0.00,24.0,22.3,00.0,32.5,25.6,13.9,0002.8,0007.52,0010.76,0006.93
2023-04-24 08:47:00,,0825.1,5.00,0.00,24.0,22.3,00.0,32.5,25.6,14.0,0003.1,0007.46,0010.54,0006.91
2023-04-24 08:48:00,,0825.1,4.99,0.00,24.0,22.3,00.0,32.5,25.6,14.0,0003.1,0007.40,0010.41,0006.90
2023-04-24 08:49:00,,0825.0,5.00,0.00,24.0,22.3,00.0,32.5,25.6,14.0,0003.6,0007.38,0010.41,0006.89
2023-04-24 08:50:00,,0825.0,5.00,0.00,24.0,22.3,00.0,32.5,25.6,14.1,0003.6,0007.37,0010.39,0006.87
2023-04-24 08:51:00,,0825.0,5.00,0.00,24.0,22.3,00.0,32.4,25.5,14.2,0002.9,0007.37,0010.40,0006.86
2023-04-24 08:52:00,,0825.0,5.00,0.00,24.0,22.3,00.0,32.4,25.5,14.1,0002.1,0007.38,0010.42,0006.86
2023-04-24 08:53:00,,0825.0,4.99,0.00,24.0,22.2,00.0,32.4,25.5,14.1,0001.3,0007.36,0010.37,0006.83
2023-04-24 08:54:00,,0825.0,5.00,0.00,24.0,22.2,00.0,32.4,25.5,14.1,0001.3,0007.32,0010.33,0006.81
2023-04-24 08:55:00,,0825.0,5.01,0.00,24.0,22.2,00.0,32.4,25.5,14.1,0001.2,0007.28,0010.24,0006.78
2023-04-24 08:56:00,,0825.0,5.01,0.00,23.9,22.2,00.0,32.4,25.5,14.0,0001.8,0007.27,0010.22,0006.80
2023-04-24 08:57:00,,0824.9,5.00,0.00,23.9,22.2,00.0,32.4,25.5,14.0,0001.4,0007.27,0010.33,0006.80
2023-04-24 08:58:00,,0824.9,4.98,0.00,23.9,22.2,00.0,32.4,25.5,13.9,0000.7,0007.32,0010.60,0006.80
2023-04-24 08:59:00,,0825.0,5.00,0.00,23.9,22.2,00.0,32.4,25.5,13.8,0000.9,0007.33,0010.64,0006.79
